Regional Weather Roundup
Issued by NWS

Home | Current Version | Previous Version | Graphics & Text | Print | Product List | Glossary On
Versions: 1 2 3 4 5 6 7 8 9 10 11 12 13 14 15 16 17 18 19 20 21 22 23 24 25 26 27
000
ASUS45 KBOU 171406
RWRCO

WEATHER ROUNDUP FOR COLORADO
NATIONAL WEATHER SERVICE DENVER/BOULDER CO
800 AM MDT THU APR 17 2014

NOTE: "FAIR" INDICATES FEW OR NO CLOUDS BELOW 12000 FEET WITH NO
SIGNIFICANT WEATHER AND/OR OBSTRUCTIONS TO VISIBILITY.

COZ001>005-013-030-031-171500-
...NORTHWEST COLORADO...

CITY           SKY/WX    TMP DP  RH WIND       PRES   REMARKS
CRAIG          SUNNY     27  21  78 CALM      30.13R
HAYDEN         SUNNY     32  18  55 E7        30.14R WCI  26
MEEKER         MOSUNNY   34  20  56 E5        30.12R WCI  30
MOUNT WERNER   NOT AVBL
STEAMBOAT SPGS SUNNY     29  16  58 CALM      30.13R
WALDEN         PTSUNNY   30  18  59 S5        30.11R WCI  25
$$

COZ006>008-011-171500-
...WEST CENTRAL VALLEYS...

CITY           SKY/WX    TMP DP  RH WIND       PRES   REMARKS
GRAND JUNCTION SUNNY     40  23  50 SE10      30.09R
MONTROSE       SUNNY     36  24  62 S7        30.13R
EAGLE          SUNNY     30  23  74 CALM      30.17R
RIFLE          MOSUNNY   34  24  67 CALM      30.13R
DELTA          SUNNY     38  24  56 CALM      30.13R
NUCLA            N/A     36  25  64 SE5       30.15R
$$

COZ017>023-064>068-171500-
...SOUTHWEST COLORADO...

CITY           SKY/WX    TMP DP  RH WIND       PRES   REMARKS
DURANGO        SUNNY     31  19  61 NE5       30.13R WCI  26
CORTEZ         SUNNY     33  23  66 NE5       30.13R WCI  29
PAGOSA SPRINGS SUNNY     35  21  57 CALM      30.16R
TELLURIDE      SUNNY     30  19  64 CALM      30.17R
WOLF CREEK PAS SUNNY     25  10  54 CALM      30.20R
$$

COZ009-010-012-014-032>034-037-058>063-171500-
...CENTRAL COLORADO...

CITY           SKY/WX    TMP DP  RH WIND       PRES   REMARKS
ASPEN          SUNNY     33  14  45 CALM      30.12R
BUENA VISTA    CLOUDY    28  27  94 CALM      30.19R
COPPER MTN     MOSUNNY   23   9  54 SW7       30.17R WCI  15
BERTHOUD PASS  FAIR      16   5  62 NW24      30.14R WCI  -3
COTTONWOOD PAS MOSUNNY   28  25  86 CALM      30.17R
GUNNISON       SUNNY     27  18  69 CALM      30.20R
KREMMLING      MOSUNNY   30  19  64 CALM      30.16R
LEADVILLE      MOSUNNY   24  17  74 CALM      30.16R
MONARCH PASS   MOSUNNY   18  16  93 SW16      30.27R WCI   3
SALIDA         SUNNY     33  29  86 CALM      30.25R
SUNLIGHT       SUNNY     28  16  59 CALM      30.19R
WILKERSON PASS MOSUNNY   19  18  93 SW3       30.19R
$$

COZ069>075-171500-
...SAN LUIS VALLEY/SANGRE DE CRISTO MOUNTAINS...

CITY           SKY/WX    TMP DP  RH WIND       PRES   REMARKS
ALAMOSA        SUNNY     31  29  92 CALM      30.18R
LA VETA PASS   CLOUDY    27  23  86 SW5       30.16S FOG     WCI  21
SAGUACHE       CLOUDY    34  25  69 NW7       30.19R WCI  28
$$

COZ035-036-038>040-171500-
...NORTHERN COLORADO FRONT RANGE...

CITY           SKY/WX    TMP DP  RH WIND       PRES   REMARKS
DENVER INTL AP MOSUNNY   40  31  70 SW6       30.09R
DMNS CITY PARK   N/A     41  29  62 NW6       30.08S
AURORA         MOSUNNY   41  28  60 SW16      30.08R
FRONT RANGE AP MOSUNNY   41  34  75 S12       30.09R
ERIE MUNI ARPT SUNNY     35  33  89 N3        30.10R
BOULDER MUN AP SUNNY     36  32  87 CALM      30.09R
CENTENNIAL     MOSUNNY   40  30  67 S8        30.09R
BROOMFIELD     MOSUNNY   37  32  81 NW9       30.09R
FORT COLLINS   SUNNY     34  30  86 N9        30.12R WCI  26
LONGMONT       SUNNY     39  33  80 N8        30.12R
$$

COZ041-046-047-076>085-087-088-171500-
...PIKES PEAK/PALMER DIVIDE AND SOUTHERN FOOTHILLS...

CITY           SKY/WX    TMP DP  RH WIND       PRES   REMARKS
COLO. SPRINGS  PTSUNNY   34  32  92 S7        30.17R WCI  28
A. F. ACADEMY  CLOUDY    32  32 100 SE6       30.15R WCI  26
ELLICOTT       NOT AVBL
FALCON         CLOUDY    32  32 100 S14       30.17R WCI  22
FORT CARSON    SUNNY     36  36  99 S9        30.16R
LIMON          CLOUDY    37  34  89 S13       30.17R
MONUMENT HILL  SUNNY     32  30  93 S18       30.11S WCI  20
TRINIDAD       CLOUDY    36  33  89 SE6       30.19R
$$

COZ042>045-048>051-090-091-171500-
...NORTHEAST COLORADO...

CITY           SKY/WX    TMP DP  RH WIND       PRES   REMARKS
GREELEY ARPT   SUNNY     36  28  75 E6        30.11R
AKRON          FOG       33  33 100 S14       30.14R VSB 1   WCI  23
BURLINGTON     CLOUDY    34  30  85 SE10      30.21R WCI  26
WRAY           CLOUDY   N/A N/A N/A E8        30.21S FOG
STERLING       CLOUDY    37  36  93 SE8       30.16S
HOLYOKE        CLOUDY    34  32  93 S7        30.21R FOG     WCI  28
FORT MORGAN    SUNNY     35  33  90 SE8       30.13S WCI  29
$$

COZ086-089-092>099-171500-
...SOUTHEAST COLORADO...

CITY           SKY/WX    TMP DP  RH WIND       PRES   REMARKS
PUEBLO         CLOUDY    39  36  89 CALM      30.19R
LA JUNTA       CLOUDY    41  38  89 S6        30.21R
LAMAR          CLOUDY    42  38  85 S12       30.20R
SPRINGFIELD      N/A     36  35  96 E7        30.21R
$$



USA.gov is the U.S. government's official web portal to all federal, state and local government web resources and services.